Location: Jackpot Mine
(38.7138°N, 119.2688°W)
Time: 23:50:50
(UTC+00:00)

Daily predictions for brighter satellites

Satellite Brightness Start Highest point End
(mag) Time Altitude Azimuth Time Altitude Azimuth Time Altitude Azimuth
CZ-4C R/B 3.7 12:06:00 40° NW 12:06:00 40° NW 12:08:37 10° NNW
OE (NEXTSAT) 4.1 12:05:10 71° SW 12:05:13 72° SSW 12:08:40 10° SE
IRIDIUM 104 4.3 12:04:46 10° N 12:10:00 83° E 12:15:13 10° S
Cosmos 1777 Rocket 4.4 12:06:08 10° NW 12:10:57 38° WSW 12:15:43 10° SSW
Cosmos 2278 4.4 12:10:40 30° W 12:12:14 35° WNW 12:17:27 10° N
Meteor 1-4 Rocket 2.5 12:10:04 20° S 12:12:20 74° E 12:15:49 10° NNE
NOSS 3-3 (A) 3.9 12:15:21 26° SW 12:18:38 65° NW 12:24:56 10° NNE
NOSS 3-3 (C) 3.8 12:15:32 26° SW 12:18:45 65° NW 12:25:01 10° NNE
IRIDIUM 114 4.2 12:13:55 10° N 12:19:09 80° W 12:24:21 10° S
Lacrosse 5 3.4 12:19:12 18° WNW 12:21:08 22° NNW 12:25:06 10° NNE
Cosmos 1727 Rocket 4.0 12:15:15 10° S 12:21:37 87° W 12:27:59 10° N
USA 32 4.4 12:17:39 10° N 12:22:54 68° E 12:28:06 10° SSE
ADEOS 3.8 12:17:43 10° NNE 12:22:57 73° ESE 12:28:08 10° S
Meteor 1-27 Rocket 4.1 12:17:31 10° S 12:23:24 71° E 12:29:19 10° NNE
Cosmos 1238 Rocket 4.3 12:18:32 10° NNW 12:24:41 43° W 12:30:21 10° SSW
SJ-6F 4.4 12:21:10 10° NNE 12:25:18 85° ESE 12:29:22 10° SSW
ERS-2 2.1 12:22:14 10° S 12:25:49 60° WSW 12:29:27 10° NNW
Cosmos 389 Rocket 4.5 12:27:24 15° NW 12:27:24 15° NW 12:28:39 10° NNW
IDEFIX/ARIANE 42P 4.0 12:23:01 10° NNW 12:26:36 19° WNW 12:27:17 18° WNW
IRIDIUM 103 4.3 12:23:05 10° N 12:28:16 65° W 12:33:25 10° S
Landsat 5 4.4 12:28:55 10° SSW 12:32:55 31° W 12:36:56 10° NW
Cosmos 1812 3.4 12:36:03 20° SW 12:37:59 32° WNW 12:41:30 10° NNW
Cosmos 44 4.3 12:38:47 19° W 12:40:43 25° NW 12:44:32 10° N
SL-4 R/B 2.7 12:36:43 12° SW 12:40:48 61° SE 12:45:31 10° ENE
X-37B 2.4 12:38:41 12° NW 12:41:01 26° N 12:43:46 10° ENE
Cosmos 1689 Rocket 4.1 12:38:39 10° SE 12:41:19 32° ENE 12:44:02 10° N
Cosmos 1937 Rocket 4.3 12:39:42 10° N 12:44:45 53° ENE 12:49:45 10° SE
deb Chang Zheng 4 3.6 12:43:33 10° N 12:47:47 58° WNW 12:51:58 10° SSW
FALCON 9 DEB 3.4 12:44:56 12° SW 12:47:58 65° SE 12:51:22 10° NE
Cosmos 1500 4.2 12:46:29 10° NNW 12:49:41 26° W 12:52:52 10° SSW
Cosmos 1459 Rocket 4.1 12:44:32 10° N 12:50:39 78° E 12:56:41 10° S
USA 234 3.8 12:47:06 10° SSE 12:53:00 36° SW 12:58:56 10° WNW
Cosmos 1707 Rocket 3.7 12:49:08 10° SSW 12:53:18 49° W 12:57:31 10° N
Cosmos 2360 Rocket 2.9 12:48:04 10° S 12:53:36 57° ESE 12:59:09 10° NNE
Cosmos 841 Rocket 3.8 12:48:31 10° S 12:53:40 72° ESE 12:58:55 10° NNE
Cosmos 1666 2.8 12:52:05 10° NNW 12:55:48 52° W 12:59:28 10° S
ADEOS Rocket 3.4 12:49:31 10° S 12:56:27 54° W 13:02:44 10° NNW
Cosmos 921 Rocket 4.4 12:56:13 13° WSW 12:58:36 20° WNW 13:01:41 10° NNW
CZ-4B R/B 4.1 12:56:33 10° N 13:00:50 67° WNW 13:05:14 10° SSW
CZ-4B R/B 3.0 12:57:29 10° NNE 13:01:08 68° ESE 13:04:42 10° S
Cosmos 1570 Rocket 4.1 12:56:34 10° SSW 13:01:52 84° ESE 13:07:14 10° NNE
ALOS 2.3 12:58:07 10° N 13:02:43 59° WNW 13:07:17 10° SSW
Cosmos 1980 Rocket 3.9 13:00:54 10° W 13:04:14 16° NW 13:07:37 10° NNW
Cosmos 1763 Rocket 3.9 12:59:54 10° SW 13:04:58 45° WNW 13:10:04 10° N
Cosmos 2322 Rocket 2.3 13:02:57 10° SW 13:08:31 57° WNW 13:14:07 10° NNE
SKYMED 2 3.9 13:05:25 10° SSE 13:09:43 74° ENE 13:14:04 10° N
PSLV R/B 4.0 13:07:19 10° SSE 13:11:21 83° ENE 13:15:26 10° N
Cosmos 2237 4.3 13:05:53 10° SSW 13:11:36 89° ESE 13:17:20 10° NNE
METEOR-M 4.2 13:06:36 10° N 13:11:54 64° WNW 13:17:10 10° SSW
FENGYUN 3A 3.9 13:07:41 10° N 13:12:54 52° WNW 13:18:07 10° SSW
CZ-4B R/B 2.4 13:11:29 10° SSW 13:14:00 23° W 13:16:35 10° NW
SL-16 R/B 2.7 13:10:32 10° SW 13:15:50 40° WNW 13:21:10 10° N
Cosmos 1733 Rocket 3.0 13:12:05 10° NNW 13:16:23 63° W 13:20:38 10° S
ERBS 3.9 13:13:52 10° W 13:16:30 21° NW 13:19:10 10° NNE
Cosmos 2263 Rocket 2.7 13:11:27 10° NW 13:16:39 39° WSW 13:21:51 10° S
Okean 1 3.7 13:14:11 10° S 13:18:12 73° E 13:22:15 10° NNE
Cosmos 2173 Rocket 4.1 13:13:47 10° NNW 13:20:00 61° W 13:26:14 10° S
